Location: Observatoire
(46.1952°N, 5.3391°E)
Time: 22:59:49
(UTC+01:00)

A-11 Canister half - Pass Details

Date: 21 February 2026
Orbit: 1525 x 1683 km, 47.3° (Epoch: 5 March)

Event Time Altitude Azimuth Distance (km) Brightness Sun altitude
Rises 19:01:57 0° 271° (W) 4,704 13.8 -9.1°
Reaches altitude 10° 19:05:01 10° 272° (W) 3,709 12.6 -9.7°
Maximum altitude 19:14:24 84° 2° (N) 1,536 9.0 -11.3°
Enters shadow 19:22:25 16° 90° (E) 3,278 10.0 -12.7°
Drops below altitude 10° 19:23:45 10° 91° (E) 3,704 - -12.9°
Sets 19:26:48 0° 92° (E) 4,697 - -13.4°
